Location: Niedergestelen
(46.3129°N, 7.7822°E)
Time: 07:17:40
(UTC+00:00)

N. Korean satellite - Visible Passes

Search period start: 18 September 2021 00:00
Search period end: 28 September 2021 00:00
Orbit: 448 x 499 km, 97.3° (Epoch: 17 September)

Date Brightness Start Highest point End Pass type
(mag) Time Alt. Az. Time Alt. Az. Time Alt. Az.
18 Sep 10.0 03:42:16 10° ENE 03:43:31 11° E 03:44:45 10° ESE visible
20 Sep 8.6 04:18:21 10° NNE 04:21:31 31° E 04:24:42 10° SSE visible
21 Sep 9.7 03:51:28 10° NE 03:53:37 15° E 03:55:45 10° SE visible
23 Sep 8.0 04:28:09 10° NNE 04:31:31 41° E 04:34:55 10° S visible
24 Sep 9.5 04:00:57 10° NE 04:03:38 20° E 04:06:19 10° SE visible
26 Sep 7.4 04:37:56 10° NNE 04:41:28 56° E 04:45:00 10° S visible
27 Sep 9.0 04:10:32 10° NE 04:13:35 26° E 04:16:38 10° SSE visible
